Retour au catalogue

COSMOS 2353

ActifMilitairePO
NORAD 25364·PAYLOAD·🇷🇺 Russia

Lancé Jun 15, 1998 depuis Plesetsk Cosmodrome

Loading…

Prochains Passages (prochaines 24 heures)

TLE

FraisSource: Space-Track

Époque: Sep 14, 2026, 12:54 UTC

1 25364U 98036B   26257.53772965  .00000011  00000-0  15746-4 0  9991
2 25364  82.5859 288.2973 0355959   4.7390 355.6903 12.21843283259941

Suivez COSMOS 2353 en temps réel avec AllMySat

Download on the App Store